Wind_Speed
15 15 15 15 15 14 14 13 13 13 12 12 12 12 11 10 10 10 9 9 8 8 7 6 7 7 7 7 7 6 6 5 5 4 3 2 2 2 1 1 1 1 2
16 16 16 16 16 16 16 15 14 14 13 13 13 12 12 12 11 11 10 9 9 9 8 7 7 7 7 8 7 7 7 6 6 5 4 4 3 3 3 3 2 2 3
17 17 17 17 17 16 16 16 15 15 14 14 14 14 13 13 12 12 11 11 10 9 9 8 8 9 9 9 8 8 7 7 7 6 5 5 5 4 4 4 4 4 3
19 19 18 18 18 17 17 17 16 16 15 15 15 15 15 14 13 13 12 12 11 11 10 10 10 10 10 10 9 9 8 8 8 7 7 6 6 5 5 5 5 5 4
21 20 19 19 18 18 18 18 17 17 17 17 17 16 16 15 15 14 14 13 13 13 12 12 12 12 11 11 11 10 10 9 9 8 8 8 7 7 6 6 6 6 6
22 22 21 20 20 19 19 19 19 19 18 18 18 18 17 17 16 16 15 15 15 14 14 14 13 13 13 12 12 12 12 12 11 10 10 9 9 8 8 8 7 7 7
24 23 22 22 21 21 21 21 21 21 20 20 20 20 19 19 18 18 17 17 17 17 16 15 15 15 14 13 13 14 14 14 13 12 12 11 10 10 9 9 9 9 9
25 24 24 23 23 23 23 23 23 22 22 22 22 21 21 21 20 20 19 18 18 18 18 18 17 17 16 15 15 15 16 16 15 14 14 13 12 11 11 11 11 11 10
27 26 25 25 24 25 24 24 24 24 24 23 23 23 23 22 22 21 20 20 19 19 19 19 19 18 18 18 17 17 17 17 17 16 15 15 14 13 13 12 12 12 11
28 28 27 26 26 26 26 25 25 24 25 25 24 24 24 23 23 23 22 21 20 20 20 20 20 20 20 20 19 19 19 18 18 17 17 17 16 16 15 15 14 14 13
29 29 28 28 27 27 27 26 26 26 25 25 25 25 24 24 24 23 23 22 22 22 22 22 21 21 21 21 20 20 19 19 19 19 18 18 18 18 17 17 16 15 15
31 31 30 30 29 29 29 28 27 27 26 26 26 26 26 26 25 25 25 25 24 24 24 24 24 23 22 22 21 20 20 20 20 20 20 20 19 19 19 19 19 18 17
33 32 31 31 30 30 29 29 29 28 27 27 27 27 27 27 27 27 26 26 26 25 25 25 25 24 24 23 23 22 21 21 21 21 22 22 21 21 20 21 21 20 20
33 33 33 32 32 31 30 30 30 29 29 29 29 29 28 28 28 28 28 27 28 27 27 26 25 25 25 24 24 23 23 22 23 22 23 23 23 22 22 23 22 22 21
33 34 34 33 33 32 32 31 31 31 30 31 31 31 30 29 30 29 29 29 29 29 28 27 27 27 26 26 25 25 25 24 24 24 24 24 24 23 24 24 24 24 23
34 34 34 34 33 33 33 33 34 33 33 32 32 32 32 32 32 31 30 30 31 31 30 29 28 28 28 27 26 26 26 25 25 25 25 25 25 25 24 25 25 26 26
35 35 35 35 34 34 35 35 35 35 35 35 34 34 34 34 34 33 33 33 33 33 32 31 30 29 29 28 28 28 27 27 27 27 27 26 27 26 26 26 26 26 26
36 36 36 37 37 36 36 36 35 35 35 35 35 36 35 35 35 35 35 34 34 33 33 32 31 30 29 30 30 29 29 28 29 29 28 28 28 28 28 28 27 27 27
37 38 38 38 38 38 38 37 38 37 36 36 37 37 37 36 36 36 35 35 35 35 35 34 33 32 31 31 31 31 31 30 30 30 30 30 30 30 30 29 29 29 29
38 38 39 39 39 39 39 38 38 38 38 37 38 38 38 38 38 38 37 37 37 37 37 36 35 34 34 34 33 32 32 32 32 32 32 32 32 32 32 31 31 31 30
39 39 38 39 39 39 39 39 38 38 39 39 39 39 39 39 39 39 39 39 39 38 38 37 37 36 36 36 36 35 34 34 34 34 33 33 33 34 34 33 33 33 33
39 39 39 39 39 39 39 39 39 39 40 40 39 39 39 39 40 41 41 40 40 40 39 39 38 37 37 37 37 37 37 36 36 35 35 35 34 35 35 36 35 35 35
38 39 39 40 39 39 40 40 40 40 40 40 39 40 40 40 40 41 41 42 42 42 42 41 40 39 39 39 39 39 38 37 36 36 36 36 36 36 37 37 37 37 37
39 39 39 40 41 40 39 40 40 40 40 40 40 40 40 40 40 41 41 42 43 43 43 42 42 41 41 40 40 40 40 39 38 37 38 38 38 38 38 39 39 39 39
40 41 41 41 41 41 39 40 40 40 40 40 40 41 41 41 41 41 41 42 43 43 43 43 42 42 42 42 42 42 41 41 40 40 39 39 40 40 40 40 41 41 41
40 42 42 42 42 42 41 41 41 40 41 41 41 41 42 42 42 42 43 43 43 43 44 45 44 44 44 44 44 44 43 42 42 42 42 41 41 41 42 42 42 43 43
Wind_Direction
242 243 243 243 242 242 243 245 245 244 243 239 236 237 237 237 238 238 235 231 232 231 228 223 219 215 216 217 212 211 214 216 217 217 216 216 227 234 234 238 243 245 246
243 243 244 244 243 244 243 243 242 241 241 241 237 236 237 238 238 238 235 234 234 235 233 228 225 219 217 217 217 218 222 225 227 230 233 235 239 247 251 251 251 258 242
243 243 244 245 244 243 243 242 240 240 241 241 240 239 239 239 239 239 237 236 236 236 235 234 233 228 224 224 224 224 225 227 230 234 240 244 246 249 251 251 253 255 240
243 243 245 246 244 242 242 241 240 239 240 241 241 240 240 240 240 240 238 238 237 236 237 237 235 232 227 228 228 229 230 234 237 240 243 246 251 253 254 254 255 255 253
244 243 244 245 243 240 239 240 240 240 239 240 242 242 241 241 239 241 240 240 240 239 239 240 236 236 232 233 233 234 237 240 243 245 247 249 254 255 255 255 256 256 257
245 245 246 245 243 241 240 240 241 241 241 240 241 242 243 243 241 242 242 243 242 242 241 243 242 241 239 238 240 241 242 244 246 249 251 253 253 253 252 253 255 256 259
247 247 246 245 244 243 242 241 242 242 243 241 242 243 243 244 243 244 244 246 246 246 247 247 246 244 244 244 247 248 248 247 250 251 252 254 254 253 254 255 254 256 258
246 246 246 246 246 244 244 243 244 244 243 243 241 243 245 245 244 244 245 247 248 248 249 249 248 250 249 249 250 252 253 252 251 250 252 253 253 253 253 255 257 258 259
245 245 247 247 247 246 245 245 244 244 245 245 242 242 245 247 246 244 245 246 247 249 250 251 250 250 252 252 252 254 255 254 252 251 252 252 251 252 253 256 259 260 261
245 247 248 247 247 246 246 246 245 244 245 245 245 245 247 248 247 245 246 246 247 249 251 252 252 251 251 252 254 256 257 255 253 253 253 253 253 255 256 257 259 260 263
246 247 247 246 247 246 245 245 245 245 244 244 245 247 247 248 248 248 247 247 249 251 253 253 252 251 251 252 253 254 255 254 254 254 254 254 255 257 258 259 259 260 262
245 247 247 247 248 246 245 245 245 245 245 244 244 246 246 246 247 249 248 248 250 253 254 254 254 253 252 253 253 253 254 253 253 254 255 256 256 256 258 259 260 260 262
245 246 246 247 246 245 245 245 246 246 246 246 245 246 247 247 249 249 248 248 250 253 255 255 255 255 252 252 252 252 253 254 254 255 257 257 256 256 259 260 260 260 260
244 244 246 246 246 246 245 245 246 247 247 247 247 249 250 250 252 251 249 249 251 254 255 255 255 255 255 254 253 252 254 255 255 256 256 256 258 259 261 261 261 261 261
245 245 246 246 247 247 247 247 247 248 247 246 247 249 251 252 252 252 251 251 252 253 254 255 254 253 255 256 254 253 255 256 256 256 258 257 259 260 262 263 262 261 261
245 245 246 247 247 247 247 248 250 249 247 247 248 250 251 252 253 251 251 252 253 254 254 254 254 252 253 255 256 255 255 256 256 256 257 258 259 261 262 263 263 262 261
245 246 246 247 248 248 248 249 250 249 249 248 249 250 251 251 251 251 252 253 253 253 253 254 254 252 252 254 256 257 257 257 257 257 257 257 259 260 261 262 262 261 261
246 247 248 248 248 249 248 249 250 249 249 250 250 251 251 252 253 253 252 252 252 251 252 254 255 254 254 254 255 257 258 258 258 258 258 258 259 259 260 260 260 260 259
246 247 248 248 248 250 249 249 250 250 250 250 250 251 252 253 254 253 253 252 251 252 252 253 255 255 255 257 258 257 258 258 259 259 259 260 260 260 260 260 259 259 260
246 247 248 248 247 248 249 249 251 251 250 250 251 251 253 253 253 253 252 252 251 251 252 253 254 254 255 256 258 258 258 259 259 259 261 261 261 260 260 259 259 259 260
247 246 247 248 248 248 248 249 249 250 251 252 253 254 253 253 252 252 252 252 251 250 252 251 253 255 256 256 258 259 260 261 261 261 261 261 261 261 261 260 259 259 260
248 247 246 248 248 249 249 249 249 251 252 252 254 255 254 253 252 251 251 251 250 250 251 252 254 255 256 257 258 259 260 260 260 260 261 261 261 261 262 262 261 261 261
249 248 248 249 248 249 249 249 250 251 253 254 254 255 254 253 253 253 252 251 251 252 252 254 254 256 257 258 258 259 260 260 260 260 261 262 262 262 262 263 263 263 262
250 250 249 249 249 250 250 250 251 252 253 254 253 253 253 253 255 255 255 253 252 253 253 254 255 255 256 257 257 258 259 261 262 262 261 262 262 262 263 263 264 264 264
250 250 250 250 250 250 250 251 251 252 253 254 254 255 255 255 255 255 255 254 254 254 254 255 255 255 256 257 258 258 259 260 262 263 263 262 263 263 264 264 263 264 264
251 249 250 250 249 250 250 252 252 252 254 255 255 255 255 255 255 255 255 255 255 256 256 255 257 257 257 258 259 259 259 260 262 262 263 263 263 263 264 264 265 265 265
Height
5826 5827 5828 5829 5830 5831 5833 5834 5835 5836 5837 5838 5839 5840 5841 5842 5843 5844 5845 5845 5846 5847 5847 5848 5849 5849 5850 5851 5852 5853 5854 5855 5856 5856 5857 5858 5858 5859 5859 5859 5859 5860 5860
5823 5824 5825 5827 5828 5829 5830 5831 5833 5834 5835 5836 5838 5839 5840 5841 5842 5843 5843 5844 5845 5846 5847 5847 5848 5849 5849 5850 5851 5852 5853 5854 5855 5856 5856 5857 5858 5858 5858 5859 5859 5859 5859
5820 5821 5823 5824 5825 5826 5827 5829 5830 5832 5833 5834 5836 5837 5838 5839 5840 5841 5842 5843 5844 5844 5845 5846 5847 5847 5848 5849 5850 5851 5852 5853 5854 5855 5856 5856 5857 5857 5858 5858 5858 5859 5859
5817 5818 5820 5821 5822 5823 5825 5826 5828 5829 5831 5832 5833 5835 5836 5837 5838 5839 5840 5841 5842 5843 5844 5844 5845 5846 5847 5848 5849 5850 5851 5852 5853 5854 5855 5855 5856 5856 5856 5857 5857 5858 5858
5814 5815 5816 5818 5819 5820 5822 5823 5825 5826 5828 5829 5831 5832 5833 5834 5836 5837 5838 5839 5840 5841 5842 5843 5843 5844 5845 5846 5848 5849 5850 5850 5852 5853 5853 5854 5854 5855 5855 5856 5856 5857 5857
5810 5812 5813 5814 5815 5817 5818 5820 5821 5823 5824 5826 5827 5829 5830 5832 5833 5834 5836 5837 5838 5839 5840 5841 5841 5842 5843 5844 5845 5847 5848 5849 5850 5851 5851 5852 5853 5853 5854 5854 5855 5855 5856
5806 5808 5809 5811 5812 5813 5814 5816 5818 5819 5820 5822 5824 5825 5827 5828 5830 5831 5833 5834 5835 5836 5837 5838 5839 5840 5840 5841 5843 5844 5845 5847 5848 5848 5849 5850 5850 5851 5852 5852 5853 5853 5854
5801 5803 5804 5806 5808 5809 5810 5812 5813 5815 5816 5818 5820 5822 5823 5825 5826 5828 5829 5831 5832 5833 5834 5835 5836 5836 5838 5839 5840 5841 5842 5844 5845 5846 5847 5847 5848 5849 5849 5850 5851 5851 5852
5796 5798 5800 5801 5803 5805 5806 5808 5809 5811 5812 5814 5816 5818 5819 5821 5822 5824 5826 5827 5828 5829 5830 5831 5832 5833 5834 5835 5836 5837 5839 5840 5841 5842 5843 5845 5845 5846 5847 5847 5848 5849 5850
5790 5792 5794 5796 5798 5800 5801 5803 5805 5806 5808 5809 5811 5813 5815 5817 5818 5820 5821 5823 5824 5826 5827 5827 5828 5829 5830 5831 5832 5834 5835 5836 5837 5839 5840 5841 5842 5843 5843 5844 5845 5846 5847
5784 5786 5788 5790 5792 5794 5796 5798 5799 5801 5803 5804 5806 5808 5810 5812 5814 5815 5817 5819 5820 5821 5822 5823 5824 5825 5826 5827 5828 5829 5830 5832 5833 5834 5835 5837 5838 5839 5840 5841 5842 5843 5843
5778 5780 5782 5784 5786 5788 5790 5792 5794 5796 5798 5800 5801 5803 5805 5807 5809 5810 5812 5814 5815 5816 5817 5818 5819 5820 5821 5822 5823 5825 5826 5827 5828 5830 5831 5832 5834 5835 5835 5836 5838 5839 5839
5771 5773 5776 5778 5780 5782 5784 5787 5789 5791 5793 5794 5796 5798 5799 5801 5803 5805 5807 5808 5810 5811 5812 5813 5814 5815 5816 5817 5818 5820 5821 5822 5823 5825 5826 5828 5829 5830 5831 5832 5833 5834 5835
5764 5766 5769 5772 5774 5776 5778 5780 5782 5784 5787 5789 5790 5792 5794 5796 5797 5799 5801 5802 5804 5805 5807 5808 5808 5809 5811 5812 5813 5814 5816 5817 5818 5819 5821 5822 5823 5825 5826 5827 5828 5829 5830
5756 5759 5762 5765 5767 5769 5772 5774 5776 5778 5780 5782 5784 5786 5788 5789 5791 5793 5794 5796 5797 5799 5800 5801 5803 5804 5805 5806 5807 5809 5810 5811 5813 5814 5815 5816 5818 5819 5820 5821 5822 5824 5825
5748 5751 5754 5757 5759 5762 5764 5766 5769 5771 5773 5775 5777 5779 5781 5782 5784 5786 5788 5789 5791 5792 5794 5795 5796 5797 5799 5800 5801 5803 5804 5805 5807 5808 5809 5811 5812 5813 5814 5816 5816 5818 5819
5740 5743 5746 5749 5751 5754 5756 5758 5761 5763 5765 5767 5769 5771 5773 5775 5777 5778 5780 5782 5783 5785 5787 5788 5789 5791 5792 5794 5795 5796 5798 5799 5800 5802 5803 5804 5806 5807 5809 5810 5810 5811 5812
5732 5735 5737 5740 5742 5745 5747 5750 5752 5754 5757 5759 5761 5763 5765 5767 5768 5770 5772 5774 5775 5776 5779 5780 5782 5784 5785 5787 5788 5789 5791 5792 5793 5795 5796 5798 5799 5801 5802 5803 5804 5805 5806
5723 5725 5728 5731 5733 5736 5738 5741 5743 5745 5747 5749 5751 5754 5756 5758 5760 5762 5764 5765 5767 5769 5770 5772 5774 5776 5778 5779 5781 5782 5783 5785 5786 5788 5789 5790 5792 5793 5794 5796 5797 5798 5799
5713 5716 5719 5721 5724 5726 5729 5731 5733 5736 5738 5740 5742 5744 5746 5748 5750 5752 5754 5756 5758 5760 5762 5764 5766 5768 5770 5772 5773 5774 5776 5777 5778 5780 5781 5782 5784 5785 5787 5788 5789 5790 5791
5704 5706 5709 5712 5714 5717 5719 5722 5724 5726 5728 5730 5732 5734 5736 5738 5740 5742 5745 5747 5749 5751 5753 5754 5757 5759 5761 5763 5764 5766 5768 5769 5770 5771 5773 5774 5775 5777 5778 5779 5781 5782 5783
5695 5697 5700 5702 5705 5708 5710 5712 5714 5716 5718 5721 5722 5724 5726 5728 5730 5732 5735 5737 5739 5741 5743 5745 5748 5750 5752 5753 5755 5757 5759 5761 5761 5763 5764 5765 5766 5768 5769 5771 5772 5773 5774
5686 5688 5691 5693 5696 5698 5700 5702 5705 5707 5709 5711 5713 5714 5716 5718 5720 5722 5724 5727 5729 5731 5734 5736 5738 5740 5742 5744 5745 5747 5749 5751 5753 5754 5755 5756 5758 5759 5760 5761 5762 5764 5765
5676 5678 5681 5683 5686 5688 5690 5692 5695 5697 5699 5701 5702 5704 5706 5707 5709 5711 5714 5716 5718 5721 5723 5725 5728 5730 5732 5733 5735 5737 5739 5741 5743 5745 5746 5747 5748 5749 5750 5752 5753 5754 5755
5667 5669 5671 5673 5676 5678 5680 5683 5685 5687 5689 5691 5692 5694 5695 5697 5699 5701 5703 5705 5707 5710 5713 5715 5716 5719 5721 5723 5725 5726 5728 5730 5732 5734 5736 5738 5738 5739 5740 5741 5742 5743 5744
5656 5658 5660 5663 5666 5668 5670 5672 5675 5677 5679 5681 5682 5684 5685 5687 5689 5691 5693 5694 5697 5699 5701 5703 5705 5707 5710 5712 5713 5715 5717 5719 5721 5723 5725 5726 5728 5729 5730 5731 5732 5732 5733